STARLINK-32315, 60740

Orbit data source: Space-Track

STARLINK-32315, 60740 is a payload satellite owned by SpaceX/Seattle (US) in LEO that was launched on Wed, 28 Aug 2024 UTC via an FALCON 9 launch vehicle from the Air Force Eastern Test Range (AFETR). Payload-class satellites include a variety of spacecraft equipped with specific instruments for various scientific and technological missions. These include communications satellites like Starlink; space stations such as the ISS; scientific satellites like the Hubble; Earth observation satellites from companies like Planet Labs, Umbra, and HawkEye 360; GPS; miniature CubeSats for education and research; and military/defense satellites.

Loading next visibility...
Identifier
60740, 2024-152W
Orbit
LEO
Last TLE update
15 hours ago
Origin
Manufacturer
SpaceX/Seattle
Mission
Operational Commercial Communications
Bus & Motor
STARLINK V2M, Unknown motor
Mass
730 kg wet, ~700 kg dry
Launch date (UTC)
2024-08-28 (8 months ago)
Launch vehicle
FALCON 9
Launch site
Air Force Eastern Test Range (AFETR)
Object type
Payload
Rocket body
Debris
Shape & HBR
Box + 2 Pan, 29 m
Radar Cross Section
36.964 m², Large (>1 m²)

Expand to show TLE details & history

TLE from 15 hours ago
0 STARLINK-32315
1 60740U 24152W   25128.63600277  .00001565  00000-0  64983-4 0  9991
2 60740  53.1608 245.5236 0001286  91.8815 268.2333 15.30186997 40019
Epoch: 2025-05-08T15:15Z
Definitive object data (Epoch: 2025-05-08T15:15:50.639Z)
Latitude
-0.00002°
Longitude
149.85893°
Altitude
476.181 km
Speed
7.629 km/s
True Right ascension
16h 22m 05s
True Declination
0° 00' 00"
Sunlit
Object was in full shadow at TLE epoch
Visualization TLE readout
Latitude
38.55°
Longitude
-69.39936°
Altitude
477.813 km
Speed
7.632 km/s
Apparent Right ascension
01h 54m 27s
Apparent Declination
1° 00' 25"
Sunlit
Object is in daylight
Visualization observer readout
Local Sidereal Time
14:04:45
Azimuth
3.927° NNE
Elevation
-49.009°
Doppler factor
1
Orbital elements
Apogee altitude
476.392 km
Perigee altitude
474.629 km
Semi-major axis
6,853.647 km
Eccentricity
0.0001286
Inclination
53.1608°
RAAN
245.5236°
Arg. of periapsis
91.8815°
True anomaly
268.21857°
Mean anomaly
268.2333°
Eccentric anomaly
268.22594°
Mean motion
3.82526 °/min
BSTAR
0.000064983
Orbital period
94.11 mins
Loading maneuver chart data...
Loading SW <> Apogee altitude chart data...
Loading historical data...
Loading historical data...
Loading historical data...
Loading historical data...
Loading historical data...
Loading historical data...
Loading historical data...

STARLINK-32315 Visibility forecast

Observer location: undefined°, undefined°

Span
Click to sort rows by Start time (UTC) header in descending order
Start Az.
Max El. time (UTC)
Max El. Az.
Max El.
End time (UTC)
End Az.
6 mins2025-05-09 10:15:00.571Z216.659° SW2025-05-09 10:18:00.571Z115.091° SE41.788°2025-05-09 10:21:00.571Z56.25° ENE
5 mins2025-05-09 16:51:00.571Z328.317° NNW2025-05-09 16:53:00.571Z49.131° ENE38.974°2025-05-09 16:56:00.571Z113.791° SE
|